Burnet, TX

2:21 AM CDT on August 24, 2017 (GMT -0500)
Burnet Municipal-Craddock

Weather History for KBMQ - February, 2013

Change the Weather History Date:

Friday, February 22, 2013

  Actual Average Record
Temperature  
Mean Temperature 47 °F -  
Max Temperature 57 °F 60 °F 86 °F (2017)
Min Temperature 37 °F 41 °F 27 °F (2009)
Degree Days  
Heating Degree Days 18    
Moisture  
Dew Point 29 °F    
Average Humidity 51    
Maximum Humidity 80    
Minimum Humidity 34    
Precipitation  
Precipitation 0.00 in - - ()
Sea Level Pressure  
Sea Level Pressure 30.01 in    
Wind  
Wind Speed 9 mph (NNE)    
Max Wind Speed 13 mph    
Max Gust Speed 20 mph    
Visibility 10 miles    
Events      
Averages and records for this station are not official NWS values.
T = Trace of Precipitation, MM = Missing Value Source: NWS Daily Summary

Daily Weather History Graph

Daily Weather History Graph

Search for Another Location

Airport or City:

Trip Planner

Search our weather history database for the weather conditions in past years. The results will help you decide how hot, cold, wet, or windy it might be!

Date:

Astronomy

Feb. 22, 2013 Rise Set
Actual Time 7:06 AM CST 6:26 PM CST
Civil Twilight 6:42 AM CST 6:51 PM CST
Nautical Twilight 6:14 AM CST 7:19 PM CST
Astronomical Twilight 5:46 AM CST 7:47 PM CST
Moon 3:46 PM CST (2/22) 4:44 AM CST (2/22)
Length of Visible Light 12h 08m
Length of Day
11h 20m
Waxing Gibbous, 90% of the Moon is Illuminated
Feb 22
Waxing Gibbous
Feb 25
Full
Mar 4
Last Quarter
Mar 11
New
Mar 19
First Quarter

Hourly Weather History & Observations

Time (CST) Temp. Windchill Dew Point Humidity Pressure Visibility Wind Dir Wind Speed Gust Speed Precip Events Conditions
12:53 AM 50.0 °F - 26.1 °F 39% 29.87 in 10.0 mi NNE 5.8 mph - N/A   Clear
2:53 AM 46.9 °F - 33.1 °F 59% 29.93 in 10.0 mi NE 5.8 mph - N/A   Clear
3:53 AM 44.1 °F 39.5 °F 34.0 °F 68% 29.94 in 10.0 mi NNE 8.1 mph - N/A   Clear
4:53 AM 43.0 °F 37.2 °F 37.0 °F 80% 29.97 in 10.0 mi North 10.4 mph - N/A   Partly Cloudy
6:53 AM 39.9 °F 33.4 °F 33.1 °F 77% 30.04 in 10.0 mi North 10.4 mph 19.6 mph N/A   Clear
7:53 AM 37.9 °F 30.0 °F 28.9 °F 70% 30.07 in 10.0 mi North 12.7 mph - N/A   Clear
8:53 AM 37.9 °F 31.5 °F 27.0 °F 65% 30.08 in 10.0 mi North 9.2 mph - N/A   Clear
9:53 AM 37.9 °F 30.5 °F 26.1 °F 62% 30.09 in 10.0 mi North 11.5 mph - N/A   Scattered Clouds
10:53 AM 43.0 °F 36.8 °F 25.0 °F 49% 30.08 in 10.0 mi NNE 11.5 mph 17.3 mph N/A   Clear
11:53 AM 46.9 °F - 26.1 °F 44% 30.07 in 10.0 mi NNE 10.4 mph - N/A   Clear
12:53 PM 48.9 °F - 26.1 °F 41% 30.04 in 10.0 mi NE 8.1 mph - N/A   Clear
1:53 PM 53.1 °F - 28.0 °F 38% 29.99 in 10.0 mi North 8.1 mph - N/A   Clear
2:53 PM 57.0 °F - 28.9 °F 34% 29.97 in 10.0 mi Variable 5.8 mph - N/A   Clear
3:53 PM 55.9 °F - 28.9 °F 36% 29.96 in 10.0 mi NE 9.2 mph - N/A   Clear
4:53 PM 55.0 °F - 30.0 °F 38% 29.96 in 10.0 mi ENE 8.1 mph - N/A   Clear
5:53 PM 54.0 °F - 28.9 °F 38% 29.98 in 10.0 mi NNE 8.1 mph - N/A   Clear
6:53 PM 51.1 °F - 30.0 °F 44% 30.01 in 10.0 mi NNE 9.2 mph - N/A   Clear
7:53 PM 50.0 °F - 30.0 °F 46% 30.04 in 10.0 mi NNE 11.5 mph - N/A   Scattered Clouds
8:53 PM 48.0 °F - 28.0 °F 46% 30.06 in 10.0 mi NNE 12.7 mph - N/A   Partly Cloudy
9:53 PM 46.0 °F 41.4 °F 28.0 °F 50% 30.06 in 10.0 mi NNE 9.2 mph - N/A   Clear
10:53 PM 44.1 °F 39.0 °F 27.0 °F 51% 30.06 in 10.0 mi NE 9.2 mph - N/A   Clear
11:53 PM 43.0 °F 36.8 °F 28.0 °F 56% 30.05 in 10.0 mi NNE 11.5 mph - N/A   Clear